Time,TemperatureF,DewpointF,PressureIn,WindDirection,WindDirectionDegrees,WindSpeedMPH,WindSpeedGustMPH,Humidity,HourlyPrecipIn,Conditions,Clouds,dailyrainin,SoftwareType,DateUTC
2013-05-26 00:03:00,51.1,50.0,30.03,NNE,28,0.0,0.0,94,0.00,,,0.00,weatherlink.com 1.10,2013-05-26 07:03:00,
2013-05-26 00:18:00,51.1,50.0,30.03,NNE,28,0.0,0.0,94,0.00,,,0.00,weatherlink.com 1.10,2013-05-26 07:18:00,
2013-05-26 00:33:00,51.0,49.0,30.03,NNE,28,0.0,0.0,94,0.00,,,0.00,weatherlink.com 1.10,2013-05-26 07:33:00,
2013-05-26 00:48:00,51.1,50.0,30.03,NNE,28,0.0,0.0,94,0.00,,,0.00,weatherlink.com 1.10,2013-05-26 07:48:00,
2013-05-26 01:03:00,51.3,50.0,30.02,NNE,28,0.0,2.0,95,0.00,,,0.00,weatherlink.com 1.10,2013-05-26 08:03:00,
2013-05-26 01:18:00,51.5,50.0,30.02,ENE,61,0.0,2.0,95,0.00,,,0.00,weatherlink.com 1.10,2013-05-26 08:18:00,
2013-05-26 01:33:00,51.7,50.0,30.02,North,5,0.0,2.0,95,0.00,,,0.00,weatherlink.com 1.10,2013-05-26 08:33:00,
2013-05-26 01:48:00,51.8,51.0,30.02,East,96,1.0,5.0,95,0.00,,,0.00,weatherlink.com 1.10,2013-05-26 08:48:00,
2013-05-26 02:03:00,51.9,51.0,30.02,NNW,331,0.0,7.0,95,0.00,,,0.00,weatherlink.com 1.10,2013-05-26 09:03:00,
2013-05-26 02:18:00,52.0,51.0,30.02,SSE,163,0.0,3.0,95,0.00,,,0.00,weatherlink.com 1.10,2013-05-26 09:18:00,
2013-05-26 02:33:00,52.0,51.0,30.02,NNW,327,1.0,8.0,95,0.00,,,0.00,weatherlink.com 1.10,2013-05-26 09:33:00,
2013-05-26 02:48:00,52.0,51.0,30.03,West,261,1.0,1.0,95,0.00,,,0.00,weatherlink.com 1.10,2013-05-26 09:48:00,
2013-05-26 03:03:00,52.0,51.0,30.04,West,275,2.0,4.0,95,0.00,,,0.00,weatherlink.com 1.10,2013-05-26 10:03:00,
2013-05-26 03:18:00,51.8,51.0,30.04,WSW,246,3.0,8.0,95,0.00,,,0.00,weatherlink.com 1.10,2013-05-26 10:18:00,
2013-05-26 03:33:00,51.4,50.0,30.04,WNW,290,4.0,9.0,95,0.00,,,0.00,weatherlink.com 1.10,2013-05-26 10:33:00,
2013-05-26 03:48:00,51.3,50.0,30.04,WSW,240,3.0,6.0,95,0.00,,,0.00,weatherlink.com 1.10,2013-05-26 10:48:00,
2013-05-26 04:03:00,51.1,50.0,30.04,WNW,302,0.0,4.0,95,0.00,,,0.00,weatherlink.com 1.10,2013-05-26 11:03:00,
2013-05-26 04:18:00,51.1,50.0,30.04,WNW,291,4.0,7.0,95,0.00,,,0.00,weatherlink.com 1.10,2013-05-26 11:18:00,
2013-05-26 04:33:00,51.0,50.0,30.05,SSW,193,0.0,5.0,95,0.00,,,0.00,weatherlink.com 1.10,2013-05-26 11:33:00,
2013-05-26 04:48:00,50.8,50.0,30.05,ENE,72,1.0,5.0,95,0.00,,,0.00,weatherlink.com 1.10,2013-05-26 11:48:00,
2013-05-26 05:03:00,50.6,49.0,30.05,SE,128,0.0,2.0,95,0.00,,,0.00,weatherlink.com 1.10,2013-05-26 12:03:00,
2013-05-26 05:18:00,50.6,49.0,30.05,NW,315,0.0,3.0,95,0.00,,,0.00,weatherlink.com 1.10,2013-05-26 12:18:00,
2013-05-26 05:33:00,50.5,49.0,30.06,North,5,0.0,1.0,95,0.00,,,0.00,weatherlink.com 1.10,2013-05-26 12:33:00,
2013-05-26 05:48:00,50.4,49.0,30.06,North,5,0.0,0.0,95,0.00,,,0.00,weatherlink.com 1.10,2013-05-26 12:48:00,
2013-05-26 06:03:00,50.4,49.0,30.06,WNW,297,1.0,5.0,95,0.00,,,0.00,weatherlink.com 1.10,2013-05-26 13:03:00,
2013-05-26 06:18:00,50.3,49.0,30.07,West,272,0.0,3.0,95,0.00,,,0.00,weatherlink.com 1.10,2013-05-26 13:18:00,
2013-05-26 06:33:00,50.4,49.0,30.07,West,272,1.0,1.0,96,0.00,,,0.00,weatherlink.com 1.10,2013-05-26 13:33:00,
2013-05-26 06:48:00,50.3,49.0,30.07,West,281,2.0,5.0,96,0.00,,,0.00,weatherlink.com 1.10,2013-05-26 13:48:00,
2013-05-26 07:03:00,50.3,49.0,30.07,West,262,0.0,4.0,96,0.00,,,0.00,weatherlink.com 1.10,2013-05-26 14:03:00,
2013-05-26 07:18:00,50.2,49.0,30.07,NW,315,1.0,5.0,95,0.00,,,0.00,weatherlink.com 1.10,2013-05-26 14:18:00,
2013-05-26 07:33:00,50.5,49.0,30.07,ENE,62,0.0,5.0,95,0.00,,,0.00,weatherlink.com 1.10,2013-05-26 14:33:00,
2013-05-26 07:48:00,50.8,50.0,30.08,ENE,57,0.0,3.0,95,0.00,,,0.00,weatherlink.com 1.10,2013-05-26 14:48:00,
2013-05-26 08:03:00,50.9,50.0,30.08,West,273,1.0,4.0,95,0.00,,,0.00,weatherlink.com 1.10,2013-05-26 15:03:00,
2013-05-26 08:18:00,50.8,50.0,30.09,West,267,0.0,6.0,95,0.00,,,0.00,weatherlink.com 1.10,2013-05-26 15:18:00,
2013-05-26 08:33:00,51.1,50.0,30.09,ENE,57,0.0,7.0,94,0.00,,,0.00,weatherlink.com 1.10,2013-05-26 15:33:00,
2013-05-26 08:49:00,51.1,50.0,30.09,NNE,32,0.0,5.0,94,0.00,,,0.00,weatherlink.com 1.10,2013-05-26 15:49:00,
2013-05-26 09:04:00,51.3,49.0,30.09,West,279,1.0,7.0,93,0.00,,,0.00,weatherlink.com 1.10,2013-05-26 16:04:00,
2013-05-26 09:19:00,51.7,50.0,30.09,West,268,2.0,6.0,93,0.00,,,0.00,weatherlink.com 1.10,2013-05-26 16:19:00,
2013-05-26 09:34:00,52.0,50.0,30.10,WNW,287,0.0,7.0,93,0.00,,,0.00,weatherlink.com 1.10,2013-05-26 16:34:00,
2013-05-26 09:49:00,52.2,50.0,30.10,NNE,32,0.0,7.0,92,0.00,,,0.00,weatherlink.com 1.10,2013-05-26 16:49:00,
2013-05-26 10:04:00,52.7,50.0,30.10,West,281,2.0,6.0,91,0.00,,,0.00,weatherlink.com 1.10,2013-05-26 17:04:00,
2013-05-26 10:19:00,53.3,51.0,30.10,WNW,294,0.0,7.0,90,0.00,,,0.00,weatherlink.com 1.10,2013-05-26 17:19:00,
2013-05-26 10:34:00,53.2,50.0,30.11,WNW,288,5.0,7.0,89,0.00,,,0.00,weatherlink.com 1.10,2013-05-26 17:34:00,
2013-05-26 10:49:00,53.0,49.0,30.11,WSW,253,2.0,6.0,87,0.00,,,0.00,weatherlink.com 1.10,2013-05-26 17:49:00,
2013-05-26 11:04:00,52.7,49.0,30.11,WNW,285,2.0,6.0,88,0.00,,,0.00,weatherlink.com 1.10,2013-05-26 18:04:00,
2013-05-26 11:19:00,53.0,50.0,30.12,ENE,65,2.0,11.0,89,0.00,,,0.00,weatherlink.com 1.10,2013-05-26 18:19:00,
2013-05-26 11:34:00,52.9,50.0,30.12,West,265,0.0,11.0,91,0.00,,,0.00,weatherlink.com 1.10,2013-05-26 18:34:00,
2013-05-26 11:49:00,53.0,50.0,30.12,NW,309,3.0,9.0,90,0.00,,,0.00,weatherlink.com 1.10,2013-05-26 18:49:00,
2013-05-26 12:04:00,53.3,50.0,30.12,WSW,242,1.0,13.0,88,0.00,,,0.00,weatherlink.com 1.10,2013-05-26 19:04:00,
2013-05-26 12:19:00,53.6,51.0,30.13,SW,232,3.0,8.0,89,0.00,,,0.00,weatherlink.com 1.10,2013-05-26 19:19:00,
2013-05-26 12:34:00,54.1,51.0,30.13,NW,306,2.0,7.0,88,0.00,,,0.00,weatherlink.com 1.10,2013-05-26 19:34:00,
2013-05-26 12:49:00,54.3,50.0,30.13,WNW,282,4.0,9.0,86,0.00,,,0.00,weatherlink.com 1.10,2013-05-26 19:49:00,
2013-05-26 13:04:00,54.8,50.0,30.13,NW,305,1.0,9.0,85,0.00,,,0.00,weatherlink.com 1.10,2013-05-26 20:04:00,
2013-05-26 13:19:00,55.2,51.0,30.13,West,277,4.0,9.0,84,0.00,,,0.00,weatherlink.com 1.10,2013-05-26 20:19:00,
2013-05-26 13:34:00,55.3,51.0,30.13,West,265,5.0,11.0,84,0.00,,,0.00,weatherlink.com 1.10,2013-05-26 20:34:00,
2013-05-26 13:49:00,54.4,50.0,30.13,WSW,255,7.0,11.0,86,0.00,,,0.00,weatherlink.com 1.10,2013-05-26 20:49:00,
2013-05-26 14:04:00,55.3,51.0,30.13,WNW,302,8.0,8.0,85,0.00,,,0.00,weatherlink.com 1.10,2013-05-26 21:04:00,
2013-05-26 14:19:00,55.3,50.0,30.13,West,270,8.0,10.0,83,0.00,,,0.00,weatherlink.com 1.10,2013-05-26 21:19:00,
2013-05-26 14:34:00,55.3,50.0,30.14,NW,307,3.0,12.0,82,0.00,,,0.00,weatherlink.com 1.10,2013-05-26 21:34:00,
2013-05-26 14:49:00,55.5,50.0,30.14,NNW,331,2.0,9.0,83,0.00,,,0.00,weatherlink.com 1.10,2013-05-26 21:49:00,
2013-05-26 15:04:00,55.9,51.0,30.14,West,277,5.0,9.0,83,0.00,,,0.00,weatherlink.com 1.10,2013-05-26 22:04:00,
2013-05-26 15:19:00,55.7,51.0,30.14,NNW,337,4.0,8.0,83,0.00,,,0.00,weatherlink.com 1.10,2013-05-26 22:19:00,
2013-05-26 15:34:00,55.8,50.0,30.15,West,262,3.0,10.0,82,0.00,,,0.00,weatherlink.com 1.10,2013-05-26 22:34:00,
2013-05-26 15:49:00,56.1,50.0,30.15,WSW,250,0.0,12.0,81,0.00,,,0.00,weatherlink.com 1.10,2013-05-26 22:49:00,
2013-05-26 16:04:00,55.5,50.0,30.15,West,263,4.0,8.0,83,0.00,,,0.00,weatherlink.com 1.10,2013-05-26 23:04:00,
2013-05-26 16:19:00,54.2,51.0,30.14,West,267,3.0,8.0,87,0.00,,,0.00,weatherlink.com 1.10,2013-05-26 23:19:00,
2013-05-26 16:34:00,53.9,50.0,30.14,West,270,6.0,10.0,86,0.00,,,0.00,weatherlink.com 1.10,2013-05-26 23:34:00,
2013-05-26 16:49:00,54.1,50.0,30.15,West,281,3.0,9.0,87,0.00,,,0.00,weatherlink.com 1.10,2013-05-26 23:49:00,
2013-05-26 17:04:00,54.4,50.0,30.14,West,276,5.0,11.0,86,0.00,,,0.00,weatherlink.com 1.10,2013-05-27 00:04:00,
2013-05-26 17:19:00,54.7,50.0,30.14,West,269,5.0,9.0,85,0.00,,,0.00,weatherlink.com 1.10,2013-05-27 00:19:00,
2013-05-26 17:34:00,55.7,51.0,30.14,WNW,287,8.0,9.0,83,0.00,,,0.00,weatherlink.com 1.10,2013-05-27 00:34:00,
2013-05-26 17:49:00,55.4,50.0,30.14,South,184,0.0,15.0,81,0.00,,,0.00,weatherlink.com 1.10,2013-05-27 00:49:00,
2013-05-26 18:04:00,55.2,50.0,30.14,West,274,3.0,8.0,81,0.00,,,0.00,weatherlink.com 1.10,2013-05-27 01:04:00,
2013-05-26 18:19:00,55.7,50.0,30.14,North,355,1.0,6.0,81,0.00,,,0.00,weatherlink.com 1.10,2013-05-27 01:19:00,
2013-05-26 18:34:00,55.7,49.0,30.14,NNW,348,1.0,6.0,79,0.00,,,0.00,weatherlink.com 1.10,2013-05-27 01:34:00,
2013-05-26 18:49:00,55.0,49.0,30.13,WNW,303,2.0,10.0,79,0.00,,,0.00,weatherlink.com 1.10,2013-05-27 01:49:00,
2013-05-26 19:04:00,55.4,49.0,30.12,WSW,240,0.0,6.0,80,0.00,,,0.00,weatherlink.com 1.10,2013-05-27 02:04:00,
2013-05-26 19:19:00,54.6,49.0,30.12,WNW,286,0.0,8.0,80,0.00,,,0.00,weatherlink.com 1.10,2013-05-27 02:19:00,
2013-05-26 19:34:00,54.1,49.0,30.12,WSW,249,0.0,7.0,83,0.00,,,0.00,weatherlink.com 1.10,2013-05-27 02:34:00,
2013-05-26 19:49:00,53.6,49.0,30.12,NW,305,0.0,8.0,83,0.00,,,0.00,weatherlink.com 1.10,2013-05-27 02:49:00,
2013-05-26 20:04:00,53.1,49.0,30.12,West,273,1.0,6.0,85,0.00,,,0.00,weatherlink.com 1.10,2013-05-27 03:04:00,
2013-05-26 20:19:00,52.3,49.0,30.12,West,269,2.0,4.0,88,0.00,,,0.00,weatherlink.com 1.10,2013-05-27 03:19:00,
2013-05-26 20:34:00,51.6,49.0,30.12,NW,318,0.0,5.0,89,0.00,,,0.00,weatherlink.com 1.10,2013-05-27 03:34:00,
2013-05-26 20:49:00,51.4,49.0,30.12,NW,315,3.0,4.0,90,0.00,,,0.00,weatherlink.com 1.10,2013-05-27 03:49:00,
2013-05-26 21:04:00,51.3,49.0,30.11,East,84,1.0,4.0,91,0.00,,,0.00,weatherlink.com 1.10,2013-05-27 04:04:00,
2013-05-26 21:19:00,51.2,48.0,30.11,NNE,12,0.0,3.0,90,0.00,,,0.00,weatherlink.com 1.10,2013-05-27 04:19:00,
2013-05-26 21:34:00,51.2,49.0,30.11,NW,304,1.0,8.0,91,0.00,,,0.00,weatherlink.com 1.10,2013-05-27 04:34:00,
2013-05-26 21:49:00,51.1,49.0,30.10,NE,55,0.0,7.0,91,0.00,,,0.00,weatherlink.com 1.10,2013-05-27 04:49:00,
2013-05-26 22:04:00,51.1,49.0,30.10,WNW,303,5.0,6.0,91,0.00,,,0.00,weatherlink.com 1.10,2013-05-27 05:04:00,
2013-05-26 22:19:00,51.2,49.0,30.09,WSW,250,0.0,8.0,91,0.00,,,0.00,weatherlink.com 1.10,2013-05-27 05:19:00,
2013-05-26 22:34:00,51.0,49.0,30.09,ESE,110,0.0,3.0,91,0.00,,,0.00,weatherlink.com 1.10,2013-05-27 05:34:00,
2013-05-26 22:49:00,51.0,49.0,30.08,NW,315,0.0,5.0,92,0.00,,,0.00,weatherlink.com 1.10,2013-05-27 05:49:00,
2013-05-26 23:04:00,51.0,49.0,30.08,NNW,336,1.0,3.0,92,0.00,,,0.00,weatherlink.com 1.10,2013-05-27 06:04:00,
2013-05-26 23:19:00,51.0,49.0,30.07,ESE,117,0.0,3.0,92,0.00,,,0.00,weatherlink.com 1.10,2013-05-27 06:19:00,
2013-05-26 23:34:00,51.2,49.0,30.06,WNW,301,0.0,5.0,92,0.00,,,0.00,weatherlink.com 1.10,2013-05-27 06:34:00,
2013-05-26 23:49:00,51.5,49.0,30.06,East,84,0.0,4.0,91,0.00,,,0.00,weatherlink.com 1.10,2013-05-27 06:49:00,